Retour au catalogue

STARLINK-35377

ActifCommunicationsVLEO
NORAD 66185·PAYLOAD·🇺🇸 United States

Lancé Oct 26, 2025 depuis Cape Canaveral Space Force Station

Loading…

Prochains Passages (prochaines 24 heures)

TLE

FraisSource: CelesTrak SupGP

Époque: Sep 15, 2026, 04:14 UTC

1 66185C 25243J   26258.17687500 -.00026523  00000+0 -78364-3 0  2587
2 66185  53.1583  82.3476 0001217  82.4626 291.8515 15.34403363    16

Suivez STARLINK-35377 en temps réel avec AllMySat

Download on the App Store